星链-5465 (STARLINK-5465 )

导读 | 豆包AI

STARLINK-5465是美国太空探索技术公司(SpaceX)在2022年12月17日发射的星链(Starlink)低轨通信卫星,隶属于第二代星链组网卫星。该卫星旨在为全球提供高速低延迟互联网接入服务,尤其是覆盖偏远地区与网络基础设施匮乏区域,是SpaceX构建全球卫星互联网星座计划的组成部分。

Basic Information
目录编号:
54775
目录名称:
STARLINK-5465
国际标识:
2022-175T
轨道中心:
EARTH
卫星名称:
星链-5465
卫星全名:
星链-5465 (STARLINK-5465 )
卫星状态:
在轨 (已飞行1184 天)
发射日期:
2022-12-17 UTC
国别 :
美国 (US)
星等 :
--
Orbit Information
数据来源 国际轨道数据 AOE轨道数据
星历时间 2026-03-15T11:16:50+0800
9小时前
查看轨道信息
2026-03-11T11:00:00+0800
4天前
查看轨道信息
半长轴 6917.856km 6917.837km
偏心率 0.0001196 0.0000751
轨道倾角 53.219° 53.220°
近地点辐角 83.380° 29.715°
升交点赤经 19.505° 37.519°
平近点角 276.733° 127.763°
近地点 538.891km 539.18km
远地点 540.547km 540.22km
周期 95.437分钟 95.437分钟
每日圈数 15.088483 15.088543
Detailed Information
固有亮度:
5
最大亮度:
2.5
卫星平台:
Starlink v1.5
覆盖范围:
全球
运营商:
太空探索技术公司
运营商所在国:
美国
制造商(研发单位):
太空探索技术公司
制造商所在国:
美国
使用方式:
暂无
Satellite Introduction
星链(Starlink)计划是由太空探索技术公司(SpaceX)提出的一个巨型低轨卫星互联网星座项目,计划在2019年至2024年间在太空搭建由约1.2万颗卫星组成的“星链”网络,其中1584颗将部署在地球上空550千米处的近地轨道,并从2020年开始工作。该卫星仍在工作。
2D Orbit Map
3D Orbit Map
Orbit Altitude Analysis Chart
Orbit Inclination Analysis Chart
Orbit Comprehensive Analysis Chart
View Comprehensive Chart